Погода в Кириллове

Россия / Нижегородская область     57°07′14″N   45°25′53″E
темп.,
°C
ветер,
м/с
пор.,
м/с
влажн.,
%
обл.,
%
осадки,
мм/ч
давл.,
гПа
погр.,
м
12 мая, ср
ср1200:00+11всв24940 0.0 102875
03:00+11всв23953 0.0 102849
06:00+13св26825 0.0 1029168
09:00+20всв3658100 0.0 1027527
12:00+24в454799 0.0 10261242
15:00+25вюв48365 0.0 10252604
18:00+22юв255774 0.0 1025124
21:00+16вюв227480 0.0 102521
13 мая, чт
чт1300:00+15вюв228046 0.0 102528
03:00+14вюв118490 0.0 102513
06:00+16вюв267699 0.0 1025160
09:00+19вюв376339 0.0 1025388
12:00+22юв475028 0.0 10231250
15:00+23ююв5847100 0.0 10221800
18:00+16в2483100 0.4 1021106
21:00+16юв41282100 0.4 1019428
14 мая, пт
пт1400:00+14юв31188100 0.6 1018381
03:00+12ююв27971 2.0 1019170
06:00+15ююз24933 0.0 1020171
09:00+20ююз357371 0.0 1020732
12:00+23юз355384 0.0 10201449
15:00+23ююз3648100 0.0 10191838
18:00+22ююз24635 0.0 1018238
21:00+16ю11855 0.0 101811
15 мая, сб
сб1500:00+15вюв119234 0.9 101712
03:00+15вюв2394100 1.3 101757
06:00+16юв2491100 0.0 1017125
09:00+22ююв4670100 0.0 1016457
12:00+27ю584783 0.0 10151196
15:00+27ю612435 0.0 10141329
18:00+24ю61350100 0.0 10131027
21:00+19ю4146331 0.0 1014561
16 мая, вс
вс1600:00+16ююв31080100 0.0 1014243
03:00+15ююв388698 0.0 1014164
06:00+17ю3878100 0.0 1014239
09:00+21зюз51166100 0.1 1014893
12:00+21юз476694 0.6 1015685
15:00+22юз47721 2.6 1014902
18:00+21ююз37750 1.9 1014294
21:00+16юз25880 1.9 101581